Regional Weather Roundup
Issued by NWS

Home | Current Version | Previous Version | Graphics & Text | Print | Product List | Glossary On
Versions: 1 2 3 4 5 6 7 8 9 10 11 12 13 14 15 16 17 18 19 20 21 22 23 24 25 26 27 28
000
ASUS43 KDMX 311607
RWRIA

WEATHER ROUNDUP FOR IOWA
NATIONAL WEATHER SERVICE DES MOINES IA
1100 AM CDT FRI OCT 31 2014

NOTE: "FAIR" INDICATES FEW OR NO CLOUDS BELOW 12,000 FEET WITH NO
SIGNIFICANT WEATHER AND/OR OBSTRUCTIONS TO VISIBILITY.

* - THESE STATIONS ARE NOT NWS STATIONS...THUS NOT UNDER NWS
QUALITY CONTROL.  THEY ALSO DO NOT REPORT WEATHER SUCH
AS PRECIPITATION OR FOG.

IAZ001>003-012>014-020>022-031>034-043>046-311700-
   NORTHWEST IOWA

CITY           SKY/WX    TMP DP  RH WIND       PRES   REMARKS
CARROLL *      SUNNY     32  19  59 N14G23    30.55R WCI  22
CHEROKEE *     SUNNY     32  21  64 NE13      30.57F WCI  22
DENISON *      SUNNY     32  19  59 NE14      30.54S WCI  22
LE MARS *      SUNNY     32  21  64 N13       30.60S WCI  22
ORANGE CITY *  SUNNY     30  19  64 NE10G16   30.58R WCI  21
SHELDON *      SUNNY     32  19  59 NE13      30.56S WCI  22
SIOUX CITY     SUNNY     33  20  58 NE13      30.60S WCI  24
SPENCER        SUNNY     32  19  58 N15G22    30.57R WCI  22
STORM LAKE *   SUNNY     32  19  59 NE14G20   30.56R WCI  22
$$

IAZ055>058-069>071-079>083-090>094-311700-
   SOUTHWEST IOWA

CITY           SKY/WX    TMP DP  RH WIND       PRES   REMARKS
ATLANTIC *     SUNNY     34  19  55 N16       30.55R HAZE    WCI  23
AUDUBON *      SUNNY     34  18  51 N12G20    30.55R WCI  25
CLARINDA *     SUNNY     36  19  51 N14       30.56R HAZE    WCI  27
COUNCIL BLFS * SUNNY     34  19  55 N14       30.55S WCI  24
CRESTON *      SUNNY     34  19  55 N17G24    30.51R WCI  23
HARLAN  *      SUNNY     32  21  64 N16       30.59R WCI  21
LAMONI         SUNNY     35  19  52 N14G24    30.47S WCI  26
RED OAK *      SUNNY     34  19  55 N14G21    30.55S WCI  24
SHENANDOAH *   SUNNY     34  21  60 N14G21    30.56F WCI  24
$$

IAZ047>049-059>061-072>074-084-311700-
   CENTRAL IOWA

CITY           SKY/WX    TMP DP  RH WIND       PRES   REMARKS
AMES           SUNNY     34  19  54 N17       30.51R WCI  23
ANKENY *       SUNNY     34  19  55 N17G24    30.51R WCI  23
CHARITON *     SUNNY     34  19  55 N16G25    30.47S WCI  23
DES MOINES     SUNNY     35  18  49 N14G24    30.51R WCI  26
GRINNELL*      SUNNY     36  19  51 N14G24    30.46S WCI  27
KNOXVILLE *    SUNNY     34  18  51 N17G26    30.46S WCI  23
MARSHALLTOWN   SUNNY     35  20  54 N18G25    30.48R WCI  24
PELLA *        SUNNY     36  21  55 N17G23    30.48S WCI  25
PERRY *          N/A     34  21  60 N16G22    30.53S WCI  23
$$

IAZ004>006-015-016-023>025-035-036-311700-
   NORTH CENTRAL IOWA

CITY           SKY/WX    TMP DP  RH WIND       PRES   REMARKS
ALGONA *       SUNNY     32  19  59 N15G22    30.54S WCI  22
CLARION *      SUNNY     32  19  59 N14G23    30.52R WCI  22
ESTHERVILLE    SUNNY     30  17  58 N17G23    30.55S WCI  18
FORT DODGE *   SUNNY     32  18  55 N10G17    30.54S WCI  24
MASON CITY     SUNNY     34  19  54 N15       30.52R WCI  24
FOREST CITY *  SUNNY     32  21  64 N15G22    30.52R WCI  22
IOWA FALLS *     N/A     34  19  55 N18       30.50R WCI  23
$$

IAZ007>011-017>019-026>030-037>042-050>054-066-311700-
   NORTHEAST IOWA

CITY           SKY/WX    TMP DP  RH WIND       PRES   REMARKS
CEDAR RAPIDS   SUNNY     35  22  58 N18       30.40R WCI  24
CHARLES CITY * SUNNY     34  18  51 N21G30    30.47R WCI  22
CLINTON *      SUNNY     39  19  45 N26G35    30.35R WCI  28
DECORAH *      MOSUNNY   34  19  55 N17G25    30.43S WCI  23
DUBUQUE        PTSUNNY   37  20  50 N26G36    30.34R WCI  25
MONTICELLO *   SUNNY     37  21  52 N17G24    30.38R WCI  28
OELWEIN *      SUNNY     34  21  60 N20G29    30.44R WCI  22
WATERLOO       SUNNY     35  20  54 N22       30.45R WCI  23
$$

IAZ064-065-067-068-078-311700-
   EAST CENTRAL IOWA

CITY           SKY/WX    TMP DP  RH WIND       PRES   REMARKS
DAVENPORT      SUNNY     39  20  46 N28G38    30.33R WCI  28
IOWA CITY      SUNNY     37  22  54 N21G26    30.42R WCI  26
MT. PLEASANT * SUNNY     36  21  55 N22G31    30.39R WCI  24
MUSCATINE *    SUNNY     39  21  48 N21G31    30.38R WCI  29
QUAD CITIES    MOSUNNY   40  22  48 N17G26    30.33R WCI  31
$$

IAZ062-063-075>077-085>089-095>099-311700-
   SOUTHEAST IOWA

CITY           SKY/WX    TMP DP  RH WIND       PRES   REMARKS
BURLINGTON     SUNNY     38  23  55 N22G31    30.36R WCI  27
FAIRFIELD *    SUNNY     36  19  51 N17G25    30.42R WCI  25
FORT MADISON * SUNNY     39  25  56 N17G26    30.38R WCI  30
KEOKUK *       SUNNY     37  23  56 N17G26    30.37S WCI  28
OSKALOOSA *      N/A     36  19  51 N20G29    30.45R WCI  25
CENTERVILLE *  SUNNY     36  19  51 N15G24    30.46R WCI  26
OTTUMWA        FLURRIES  36  20  52 N22G28    30.44R WCI  25
WASHINGTON *   SUNNY     37  23  56 N20       30.41R WCI  27
$$

ABBREVIATIONS USED IN REMARKS
   TC - TEMPERATURES IN CELSIUS
  WCI - WIND CHILL INDEX
   HX - HEAT INDEX
  VSB - VISIBILITY
$$




USA.gov is the U.S. government's official web portal to all federal, state and local government web resources and services.